Regional Weather Roundup
Issued by NWS Lake Charles, LA

Home | Current Version | Previous Version | Text Only | Print | Product List | Glossary On
Versions: 1 2 3 4 5 6 7 8 9 10 11 12 13 14 15 16 17 18 19 20 21 22 23 24 25 26 27 28 29 30 31 32 33 34 35 36 37 38 39 40 41 42 43 44 45 46 47 48 49 50
000
ASUS44 KLCH 161510
RWRLCH
RWRLCH
REGIONAL WEATHER ROUNDUP
NATIONAL WEATHER SERVICE LAKE CHARLES LA
1000 AM CDT TUE SEP 16 2014

Note: "fair" indicates few or no clouds below 12,000 feet with no
significant weather and/or obstructions to visibility.


ACROSS SOUTHEAST TEXAS

CITY           SKY/WX    TMP DP  RH WIND       PRES   REMARKS
BEAUMONT       LGT RAIN  80  76  87 NE6       30.07S
BEAUMONT CITY  CLOUDY    81  77  89 S5        30.07S
ORANGE         RAIN      80  80 100 NE6       30.08F
JASPER         MOSUNNY   80  73  79 E3        30.11S
$$

ACROSS CENTRAL LOUISIANA

CITY           SKY/WX    TMP DP  RH WIND       PRES   REMARKS
LEESVILLE      MOSUNNY   81  73  76 VRB6      30.09S
FULLERTON      PTSUNNY   83  72  69 CALM      30.07S
ALEXANDRIA INT PTSUNNY   78  71  79 E5        30.08S
ESLER FIELD    PTSUNNY   82  72  71 E6        30.09S
DERIDDER         N/A     81  74  79 NE3       30.11F HAZE
OAKDALE        SUNNY     82  75  78 NE3       30.09S
OPELOUSAS        N/A     81  75  81 N5        30.08S
$$

ACROSS SOUTHWEST AND SOUTH CENTRAL LOUISIANA

CITY           SKY/WX    TMP DP  RH WIND       PRES   REMARKS
SULPHUR        MOSUNNY   86  78  77 SE5       30.08R
LAKE CHARLES   MOSUNNY   85  76  74 CALM      30.07S
CHENNAULT INT  MOSUNNY   84  75  74 E5        30.08S
CAMERON PHI    MOSUNNY   81  77  89 SE6       30.11R
DEQUINCY         N/A     82  75  78 CALM      30.08F
JENNINGS         N/A     83  76  81 CALM      30.07S
LAFAYETTE      PTSUNNY   84  77  79 CALM      30.07S
NEW IBERIA     SUNNY     86  75  69 CALM      30.08S
ABBEVILLE        N/A     84  77  80 CALM      30.07F
PATTERSON      MOSUNNY   84  79  84 CALM      30.10S
SALT POINT       N/A     84  79  85 CALM      30.07R
$$

SELECTED SITES ACROSS THE REGION

CITY           SKY/WX    TMP DP  RH WIND       PRES   REMARKS
HOUSTON BUSH   PTSUNNY   84  77  79 E8        30.07R
HOUSTON HOBBY  MOSUNNY   85  77  77 E5        30.06R
GALVESTON      CLOUDY    82  76  81 SE7       30.07R
COLLEGE STAT   PTSUNNY   80  74  81 E3        30.09R
CONROE         MOSUNNY   83  76  79 VRB5      30.09S
HUNTSVILLE     PTSUNNY   81  74  79 CALM      30.09S
LUFKIN         SUNNY     84  73  69 NE5       30.10S
SHREVEPORT     PTSUNNY   80  69  69 VRB5      30.11S
MONROE         CLOUDY    78  68  71 CALM      30.12S
NATCHEZ MS     CLOUDY    79  73  83 NE5       30.11R
BATON ROUGE    MOSUNNY   83  75  77 CALM      30.08S
N.O. INTL ARPT MOSUNNY   84  75  74 CALM      30.07S
SLIDELL        PTSUNNY   84  75  74 CALM      30.07F
$$

MARINE REPORTS

STATION/POSITION TIME  TEMP    WIND        PRES    VSBY  WAVE
                       AIR SEA DIR/SP/G                  HT/PER
                 (UTC) (F)     (DEG/KT/KT) (MB)    (MI)  (FT/S)
BUOY 30 S HIGH I 1500   81 85  220/  4/  8 1017.6R         2/ 5
SEA RIM ST PARK  1500   83      10/  3/  4 1018.4S
PORT ARTHUR      1400      83                N/A
SABINE PASS N    1400      83                N/A
TEXAS POINT      1400      83                N/A
CALCASIEU PASS   1400      83                N/A
LK CHARLES BEACH 1400      82                N/A
MARSH ISLAND     NOT AVBL
FRESH WATER LOCK 1400      84                N/A
AMERADA PASS     1400      84                N/A
$$


USA.gov is the U.S. government's official web portal to all federal, state and local government web resources and services.